NR0Q Weather Reports


Display with metric or nautical units.
time (UTC)temp
F
wind
direction
speed
MPH
gust
MPH
rain 1hr
in
rain 24hr
in
rain mn
in
humidity
%
barometer
mb
20260506004501 50 20 6.0 8.0 0.00 0.03 0.00 71 1011.5
20260506003001 51 323 2.0 4.0 0.00 0.03 0.00 71 1011.5
20260506001501 51 67 2.0 11.0 0.00 0.03 0.00 71 1011.5
20260506000001 51 313 6.0 6.0 0.00 0.03 0.00 70 1011.5
20260505234501 51 178 6.0 8.0 0.00 0.03 0.00 69 1011.5
20260505233001 51 317 4.0 8.0 0.00 0.03 0.00 67 1011.5
20260505231501 52 256 4.0 8.0 0.00 0.03 0.00 67 1010.5
20260505224501 53 314 2.0 11.0 0.00 0.03 0.00 66 1010.5
20260505223001 53 264 2.0 8.0 0.00 0.03 0.00 65 1010.5
20260505221501 53 197 4.0 4.0 0.00 0.03 0.00 64 1009.5
20260505220001 53 156 8.0 8.0 0.00 0.03 0.00 64 1009.5
20260505214501 53 4 11.0 13.0 0.00 0.03 0.00 64 1009.5
20260505213001 54 46 13.0 13.0 0.00 0.03 0.00 63 1009.5
20260505211501 54 340 6.0 8.0 0.00 0.03 0.00 64 1009.5
20260505210001 54 274 4.0 8.0 0.00 0.03 0.00 64 1009.5
20260505204501 54 36 8.0 8.0 0.00 0.03 0.00 64 1009.5
20260505203001 54 35 4.0 6.0 0.00 0.03 0.00 65 1009.5
20260505201501 54 302 8.0 8.0 0.00 0.03 0.00 65 1009.5
20260505200001 54 320 8.0 22.0 0.00 0.03 0.00 65 1009.5
20260505194501 54 5 6.0 8.0 0.00 0.03 0.00 65 1009.5
20260505193001 55 31 4.0 6.0 0.00 0.03 0.00 67 1009.5
20260505191501 55 24 4.0 8.0 0.00 0.03 0.00 67 1009.5
20260505190001 55 96 8.0 13.0 0.00 0.03 0.00 67 1008.5
20260505184501 55 310 4.0 6.0 0.00 0.03 0.00 67 1008.5
20260505183001 56 43 4.0 11.0 0.00 0.03 0.00 65 1008.5
20260505181501 55 58 6.0 17.0 0.00 0.03 0.00 67 1008.5
20260505180001 55 357 11.0 17.0 0.00 0.03 0.00 68 1008.5
20260505174501 55 255 6.0 8.0 0.00 0.03 0.00 71 1008.5
20260505173001 55 69 2.0 11.0 0.00 0.03 0.00 73 1008.5
20260505171501 55 17 13.0 15.0 0.00 0.03 0.00 73 1007.5
20260505170002 55 42 8.0 13.0 0.00 0.03 0.00 74 1007.5
20260505164501 55 352 8.0 11.0 0.00 0.03 0.00 75 1007.5
20260505163001 55 39 2.0 11.0 0.00 0.03 0.00 76 1007.5
20260505161501 55 294 2.0 26.0 0.00 0.03 0.00 77 1006.4
20260505153001 56 315 0.0 2.0 0.00 0.03 0.00 83 1006.4
20260505151501 57 15 4.0 17.0 0.00 0.03 0.00 81 1006.4
20260505124501 65 14 4.0 11.0 0.00 0.03 0.00 79 1004.7
20260505123001 65 94 4.0 8.0 0.00 0.03 0.00 76 1004.7
20260505121501 65 264 2.0 2.0 0.00 0.03 0.00 77 1004.7
20260505120001 65 64 0.0 2.0 0.00 0.03 0.00 79 1004.7
20260505114501 65 73 4.0 4.0 0.00 0.03 0.00 79 1003.7
20260505113002 65 86 4.0 4.0 0.00 0.03 0.00 79 1003.7
20260505111502 65 81 2.0 4.0 0.00 0.03 0.00 79 1003.7
20260505101501 64 92 6.0 8.0 0.00 0.03 0.00 80 1003.7
20260505100001 64 332 2.0 8.0 0.00 0.03 0.00 80 1003.7
20260505094501 65 46 11.0 6.0 0.00 0.03 0.00 80 1003.7
20260505093001 65 78 15.0 20.0 0.00 0.03 0.00 79 1002.7
20260505091501 65 72 11.0 11.0 0.00 0.03 0.00 79 1003.7
20260505090001 65 51 2.0 6.0 0.00 0.03 0.00 77 1002.7
20260505084501 65 93 0.0 6.0 0.00 0.03 0.00 77 1002.7
20260505083002 65 75 11.0 11.0 0.00 0.03 0.00 75 1002.7
20260505081501 65 84 4.0 8.0 0.00 0.03 0.00 74 1002.7
20260505080001 65 99 8.0 8.0 0.00 0.03 0.00 74 1002.7
20260505074501 65 40 6.0 8.0 0.00 0.03 0.00 73 1003.7
20260505073001 65 75 8.0 22.0 0.00 0.03 0.00 74 1003.7
20260505071501 67 74 6.0 13.0 0.00 0.03 0.00 72 1003.7
20260505070001 67 98 6.0 6.0 0.00 0.03 0.00 74 1003.7
20260505064506 67 140 4.0 13.0 0.00 0.03 0.00 75 1004.7
20260505063001 66 74 0.0 4.0 0.00 0.03 0.00 75 1004.7
20260505061501 66 105 4.0 8.0 0.00 0.03 0.00 77 1004.7
20260505060001 66 355 4.0 4.0 0.00 0.03 0.00 76 1004.7
20260505053001 66 14 4.0 4.0 0.00 0.03 0.00 79 1004.7
20260505051501 67 345 2.0 4.0 0.00 0.03 0.00 79 1003.7
20260505041502 69 95 4.0 2.0 0.03 0.03 0.00 68 1003.7
20260505040001 69 92 8.0 8.0 0.02 0.02 0.00 66 1003.7
20260505034501 69 154 4.0 8.0 0.02 0.02 0.00 70 1003.7
20260505033002 71 153 8.0 11.0 0.00 0.00 0.00 59 1004.7
20260505031501 71 99 6.0 8.0 0.00 0.00 0.00 58 1003.7
20260505030001 72 60 6.0 8.0 0.00 0.00 0.00 57 1003.7
20260505024501 72 138 6.0 6.0 0.00 0.00 0.00 57 1004.7
20260505023001 73 140 4.0 4.0 0.00 0.00 0.00 57 1004.7
20260505021501 73 156 4.0 4.0 0.00 0.00 0.00 57 1004.7
20260505020001 73 157 2.0 4.0 0.00 0.00 0.00 57 1004.7
20260505014501 74 166 6.0 4.0 0.00 0.00 0.00 56 1004.7
20260505013001 74 115 6.0 6.0 0.00 0.00 0.00 56 1003.7
20260505011501 74 145 8.0 13.0 0.00 0.00 0.00 56 1003.7
20260505010001 75 122 4.0 8.0 0.00 0.00 0.00 55 1003.7